| time (UTC) | temp C | wind direction | speed KPH | gust KPH | rain 1hr cm | rain 24hr cm | rain mn cm | humidity % | barometer mb |
| 20260906191015 | 20 | 47 | 0.0 | 4.8 | 0.00 | 0.13 | 0.13 | 96 | 1018.7 |
| 20260906190515 | 20 | 83 | 0.0 | 11.3 | 0.00 | 0.13 | 0.13 | 97 | 1018.5 |
| 20260906190040 | 20 | 0 | 3.2 | 11.3 | 0.00 | 0.13 | 0.13 | 97 | 1018.4 |
| 20260906185519 | 20 | 182 | 3.2 | 11.3 | 0.00 | 0.13 | 0.13 | 97 | 1018.4 |
| 20260906185024 | 21 | 165 | 4.8 | 11.3 | 0.00 | 0.13 | 0.13 | 97 | 1018.2 |
| 20260906184537 | 21 | 172 | 3.2 | 16.1 | 0.00 | 0.13 | 0.13 | 97 | 1018.0 |
| 20260906184018 | 21 | 154 | 4.8 | 20.9 | 0.00 | 0.13 | 0.13 | 97 | 1017.8 |
| 20260906183524 | 21 | 125 | 8.0 | 20.9 | 0.00 | 0.13 | 0.13 | 96 | 1018.0 |
| 20260906183037 | 21 | 151 | 9.7 | 19.3 | 0.00 | 0.13 | 0.13 | 95 | 1018.0 |
| 20260906182516 | 23 | 222 | 9.7 | 19.3 | 0.00 | 0.13 | 0.13 | 93 | 1018.2 |
| 20260906182017 | 25 | 186 | 3.2 | 6.4 | 0.00 | 0.13 | 0.13 | 98 | 1018.0 |
| 20260906181537 | 25 | 162 | 1.6 | 6.4 | 0.10 | 0.13 | 0.13 | 98 | 1017.8 |
| 20260906181017 | 25 | 188 | 1.6 | 8.0 | 0.13 | 0.13 | 0.13 | 98 | 1017.8 |
| 20260906180518 | 25 | 155 | 3.2 | 8.0 | 0.13 | 0.13 | 0.13 | 98 | 1017.8 |
| 20260906180035 | 25 | 0 | 1.6 | 4.8 | 0.13 | 0.13 | 0.13 | 98 | 1017.4 |
| 20260906175521 | 25 | 224 | 0.0 | 6.4 | 0.13 | 0.13 | 0.13 | 98 | 1017.2 |
| 20260906175020 | 25 | 245 | 3.2 | 6.4 | 0.13 | 0.13 | 0.13 | 98 | 1017.5 |
| 20260906174532 | 25 | 0 | 0.0 | 4.8 | 0.13 | 0.13 | 0.13 | 98 | 1017.5 |
| 20260906174015 | 25 | 0 | 0.0 | 6.4 | 0.13 | 0.13 | 0.13 | 98 | 1017.7 |
| 20260906173516 | 25 | 0 | 0.0 | 6.4 | 0.13 | 0.13 | 0.13 | 97 | 1017.8 |
| 20260906173043 | 25 | 232 | 1.6 | 11.3 | 0.13 | 0.13 | 0.13 | 96 | 1017.7 |
| 20260906172515 | 25 | 241 | 1.6 | 11.3 | 0.13 | 0.13 | 0.13 | 95 | 1017.6 |
| 20260906172017 | 26 | 212 | 4.8 | 11.3 | 0.13 | 0.13 | 0.13 | 91 | 1018.0 |
| 20260906171533 | 26 | 210 | 3.2 | 8.0 | 0.00 | 0.00 | 0.00 | 89 | 1018.0 |
| 20260906171019 | 26 | 200 | 1.6 | 8.0 | 0.00 | 0.00 | 0.00 | 89 | 1017.8 |
| 20260906170514 | 26 | 222 | 3.2 | 11.3 | 0.00 | 0.00 | 0.00 | 88 | 1018.0 |
| 20260906170033 | 26 | 259 | 3.2 | 11.3 | 0.00 | 0.00 | 0.00 | 89 | 1017.8 |
| 20260906165519 | 26 | 186 | 1.6 | 8.0 | 0.00 | 0.00 | 0.00 | 88 | 1017.9 |
| 20260906165019 | 26 | 237 | 0.0 | 8.0 | 0.00 | 0.00 | 0.00 | 88 | 1017.8 |
| 20260906164534 | 26 | 148 | 3.2 | 8.0 | 0.00 | 0.00 | 0.00 | 88 | 1017.8 |
| 20260906164016 | 26 | 221 | 3.2 | 8.0 | 0.00 | 0.00 | 0.00 | 87 | 1017.6 |
| 20260906163515 | 26 | 164 | 3.2 | 8.0 | 0.00 | 0.00 | 0.00 | 87 | 1017.6 |
| 20260906163033 | 26 | 171 | 3.2 | 8.0 | 0.00 | 0.00 | 0.00 | 87 | 1017.6 |
| 20260906162519 | 26 | 174 | 1.6 | 9.7 | 0.00 | 0.00 | 0.00 | 87 | 1017.4 |
| 20260906162015 | 26 | 174 | 4.8 | 9.7 | 0.00 | 0.00 | 0.00 | 87 | 1017.3 |
| 20260906161532 | 26 | 0 | 0.0 | 11.3 | 0.00 | 0.00 | 0.00 | 88 | 1017.1 |
| 20260906161020 | 26 | 160 | 1.6 | 11.3 | 0.00 | 0.00 | 0.00 | 89 | 1017.0 |
| 20260906160517 | 26 | 184 | 3.2 | 11.3 | 0.00 | 0.00 | 0.00 | 88 | 1017.1 |
| 20260906160040 | 26 | 163 | 4.8 | 9.7 | 0.00 | 0.00 | 0.00 | 88 | 1017.0 |
| 20260906155516 | 26 | 170 | 3.2 | 9.7 | 0.00 | 0.00 | 0.00 | 88 | 1017.0 |
| 20260906155025 | 26 | 158 | 0.0 | 8.0 | 0.00 | 0.00 | 0.00 | 88 | 1016.9 |
| 20260906154545 | 26 | 249 | 1.6 | 8.0 | 0.00 | 0.00 | 0.00 | 89 | 1016.8 |
| 20260906154018 | 26 | 163 | 3.2 | 6.4 | 0.00 | 0.00 | 0.00 | 89 | 1016.7 |
| 20260906153518 | 26 | 129 | 1.6 | 4.8 | 0.00 | 0.00 | 0.00 | 91 | 1016.6 |
| 20260906153038 | 25 | 153 | 1.6 | 8.0 | 0.00 | 0.00 | 0.00 | 91 | 1016.7 |
| 20260906152521 | 25 | 0 | 1.6 | 14.5 | 0.00 | 0.00 | 0.00 | 92 | 1016.6 |
| 20260906152015 | 25 | 0 | 3.2 | 14.5 | 0.00 | 0.00 | 0.00 | 92 | 1016.5 |
| 20260906151533 | 25 | 170 | 4.8 | 12.9 | 0.00 | 0.00 | 0.00 | 93 | 1016.5 |
| 20260906151015 | 25 | 164 | 3.2 | 8.0 | 0.00 | 0.00 | 0.00 | 93 | 1017.0 |
| 20260906150515 | 25 | 166 | 1.6 | 4.8 | 0.00 | 0.00 | 0.00 | 94 | 1017.0 |
| 20260906150035 | 25 | 207 | 0.0 | 3.2 | 0.00 | 0.00 | 0.00 | 94 | 1017.3 |
| 20260906145517 | 25 | 0 | 0.0 | 4.8 | 0.00 | 0.08 | 0.00 | 95 | 1017.2 |
| 20260906145016 | 25 | 174 | 0.0 | 4.8 | 0.00 | 0.08 | 0.00 | 95 | 1017.2 |
| 20260906144535 | 25 | 223 | 0.0 | 3.2 | 0.00 | 0.08 | 0.00 | 95 | 1017.2 |
| 20260906144021 | 24 | 157 | 0.0 | 4.8 | 0.00 | 0.08 | 0.00 | 95 | 1017.2 |
| 20260906143519 | 24 | 146 | 0.0 | 4.8 | 0.00 | 0.08 | 0.00 | 95 | 1016.9 |
| 20260906143034 | 24 | 210 | 1.6 | 6.4 | 0.00 | 0.08 | 0.00 | 95 | 1016.8 |
| 20260906142519 | 24 | 178 | 1.6 | 6.4 | 0.00 | 0.08 | 0.00 | 95 | 1016.7 |
| 20260906142018 | 24 | 0 | 1.6 | 6.4 | 0.00 | 0.08 | 0.00 | 95 | 1016.8 |
| 20260906141534 | 24 | 224 | 3.2 | 6.4 | 0.00 | 0.08 | 0.00 | 96 | 1016.6 |
| 20260906141016 | 24 | 0 | 0.0 | 6.4 | 0.00 | 0.08 | 0.00 | 96 | 1016.4 |
| 20260906140521 | 24 | 108 | 1.6 | 4.8 | 0.00 | 0.08 | 0.00 | 96 | 1016.5 |
| 20260906140043 | 24 | 0 | 0.0 | 4.8 | 0.00 | 0.08 | 0.00 | 96 | 1016.4 |
| 20260906135517 | 24 | 176 | 0.0 | 6.4 | 0.00 | 0.33 | 0.00 | 96 | 1016.4 |
| 20260906135016 | 24 | 0 | 1.6 | 6.4 | 0.00 | 0.33 | 0.00 | 96 | 1016.4 |
| 20260906134535 | 24 | 139 | 1.6 | 6.4 | 0.00 | 0.33 | 0.00 | 96 | 1016.4 |
| 20260906134016 | 24 | 148 | 1.6 | 8.0 | 0.00 | 0.33 | 0.00 | 96 | 1016.4 |
| 20260906133515 | 24 | 197 | 3.2 | 8.0 | 0.00 | 0.33 | 0.00 | 97 | 1016.4 |
| 20260906133034 | 23 | 166 | 0.0 | 6.4 | 0.00 | 0.33 | 0.00 | 97 | 1016.4 |
| 20260906132520 | 23 | 0 | 0.0 | 6.4 | 0.00 | 0.33 | 0.00 | 97 | 1016.4 |
| 20260906132015 | 23 | 163 | 1.6 | 6.4 | 0.00 | 0.33 | 0.00 | 97 | 1016.3 |
| 20260906131533 | 23 | 174 | 3.2 | 9.7 | 0.00 | 0.33 | 0.00 | 97 | 1016.5 |
| 20260906131017 | 23 | 160 | 0.0 | 9.7 | 0.00 | 0.33 | 0.00 | 97 | 1016.4 |
| 20260906130515 | 23 | 132 | 1.6 | 9.7 | 0.00 | 0.33 | 0.00 | 97 | 1016.4 |
| 20260906130041 | 23 | 180 | 0.0 | 8.0 | 0.00 | 0.33 | 0.00 | 97 | 1016.3 |
| 20260906125517 | 23 | 0 | 1.6 | 8.0 | 0.00 | 0.81 | 0.00 | 97 | 1016.3 |
| 20260906125021 | 23 | 153 | 1.6 | 8.0 | 0.00 | 0.81 | 0.00 | 97 | 1016.3 |
| 20260906124535 | 23 | 180 | 0.0 | 6.4 | 0.00 | 0.81 | 0.00 | 97 | 1016.2 |
| 20260906124023 | 23 | 161 | 1.6 | 6.4 | 0.00 | 0.81 | 0.00 | 97 | 1016.2 |
| 20260906123517 | 23 | 220 | 1.6 | 6.4 | 0.00 | 0.81 | 0.00 | 97 | 1016.1 |
| 20260906123035 | 23 | 176 | 1.6 | 6.4 | 0.00 | 0.81 | 0.00 | 97 | 1016.1 |
| 20260906122516 | 23 | 0 | 1.6 | 6.4 | 0.00 | 0.81 | 0.00 | 97 | 1016.1 |
| 20260906122019 | 23 | 0 | 1.6 | 8.0 | 0.00 | 0.81 | 0.00 | 97 | 1016.1 |
| 20260906121532 | 23 | 0 | 3.2 | 9.7 | 0.00 | 0.81 | 0.00 | 97 | 1016.2 |
| 20260906121017 | 23 | 161 | 3.2 | 9.7 | 0.00 | 0.81 | 0.00 | 98 | 1016.0 |
| 20260906120516 | 23 | 176 | 1.6 | 8.0 | 0.00 | 0.81 | 0.00 | 98 | 1016.0 |
| 20260906120036 | 23 | 160 | 3.2 | 8.0 | 0.00 | 0.81 | 0.00 | 98 | 1015.9 |
| 20260906115516 | 23 | 191 | 3.2 | 9.7 | 0.00 | 0.86 | 0.00 | 98 | 1015.9 |
| 20260906115020 | 23 | 189 | 3.2 | 9.7 | 0.00 | 0.86 | 0.00 | 98 | 1015.9 |
| 20260906114534 | 23 | 118 | 3.2 | 6.4 | 0.00 | 0.86 | 0.00 | 98 | 1015.9 |
| 20260906114021 | 23 | 200 | 0.0 | 6.4 | 0.00 | 0.86 | 0.00 | 98 | 1015.8 |
| 20260906113516 | 23 | 216 | 1.6 | 8.0 | 0.00 | 0.86 | 0.00 | 98 | 1015.7 |
| 20260906113042 | 23 | 150 | 0.0 | 8.0 | 0.00 | 0.86 | 0.00 | 98 | 1015.6 |
| 20260906112519 | 23 | 161 | 1.6 | 8.0 | 0.00 | 0.86 | 0.00 | 98 | 1015.6 |
| 20260906112024 | 23 | 0 | 0.0 | 8.0 | 0.00 | 0.86 | 0.00 | 98 | 1015.6 |
| 20260906111539 | 23 | 180 | 0.0 | 3.2 | 0.00 | 0.86 | 0.00 | 98 | 1015.5 |
| 20260906111015 | 23 | 170 | 0.0 | 6.4 | 0.00 | 0.86 | 0.00 | 98 | 1015.4 |
| 20260906110516 | 23 | 167 | 0.0 | 6.4 | 0.00 | 0.86 | 0.00 | 98 | 1015.4 |
| 20260906110036 | 23 | 0 | 0.0 | 3.2 | 0.00 | 0.86 | 0.00 | 98 | 1015.3 |
| 20260906105520 | 23 | 146 | 0.0 | 6.4 | 0.00 | 0.89 | 0.00 | 98 | 1015.3 |
| 20260906105016 | 23 | 0 | 0.0 | 6.4 | 0.00 | 0.89 | 0.00 | 98 | 1015.4 |
| 20260906104529 | 23 | 0 | 0.0 | 6.4 | 0.00 | 0.89 | 0.00 | 98 | 1015.4 |
| 20260906104014 | 22 | 157 | 0.0 | 3.2 | 0.00 | 0.89 | 0.00 | 98 | 1015.4 |
| 20260906103519 | 22 | 160 | 0.0 | 3.2 | 0.00 | 0.89 | 0.00 | 98 | 1015.4 |
| 20260906103033 | 22 | 0 | 0.0 | 1.6 | 0.00 | 0.89 | 0.00 | 98 | 1015.4 |
| 20260906102516 | 22 | 0 | 0.0 | 1.6 | 0.00 | 0.89 | 0.00 | 98 | 1015.3 |
| 20260906102016 | 22 | 0 | 0.0 | 1.6 | 0.00 | 0.89 | 0.00 | 98 | 1015.2 |
| 20260906101535 | 22 | 0 | 0.0 | 1.6 | 0.00 | 0.89 | 0.00 | 98 | 1015.2 |
| 20260906101018 | 22 | 160 | 0.0 | 1.6 | 0.00 | 0.89 | 0.00 | 98 | 1015.3 |
| 20260906100516 | 22 | 0 | 0.0 | 1.6 | 0.00 | 0.89 | 0.00 | 98 | 1015.2 |
| 20260906100030 | 22 | 0 | 0.0 | 1.6 | 0.00 | 0.89 | 0.00 | 98 | 1015.3 |
| 20260906095517 | 22 | 0 | 0.0 | 1.6 | 0.00 | 0.89 | 0.00 | 98 | 1015.2 |
| 20260906095018 | 22 | 0 | 0.0 | 0.0 | 0.00 | 0.89 | 0.00 | 98 | 1015.3 |
| 20260906094535 | 22 | 0 | 0.0 | 0.0 | 0.00 | 0.89 | 0.00 | 98 | 1015.3 |
| 20260906094019 | 22 | 0 | 0.0 | 0.0 | 0.00 | 0.89 | 0.00 | 98 | 1015.3 |
| 20260906093517 | 22 | 0 | 0.0 | 1.6 | 0.00 | 0.89 | 0.00 | 97 | 1015.4 |
| 20260906093032 | 22 | 0 | 0.0 | 1.6 | 0.00 | 0.89 | 0.00 | 97 | 1015.4 |
| 20260906092516 | 22 | 0 | 0.0 | 0.0 | 0.00 | 0.89 | 0.00 | 97 | 1015.6 |
| 20260906092016 | 22 | 0 | 0.0 | 0.0 | 0.00 | 0.89 | 0.00 | 97 | 1015.7 |
| 20260906091534 | 22 | 0 | 0.0 | 0.0 | 0.00 | 0.89 | 0.00 | 97 | 1015.6 |
| 20260906091016 | 22 | 0 | 0.0 | 0.0 | 0.00 | 0.89 | 0.00 | 97 | 1015.6 |
| 20260906090516 | 22 | 0 | 0.0 | 0.0 | 0.00 | 0.89 | 0.00 | 97 | 1015.7 |
| 20260906090033 | 22 | 0 | 0.0 | 0.0 | 0.00 | 0.89 | 0.00 | 97 | 1015.7 |
| 20260906085518 | 22 | 0 | 0.0 | 0.0 | 0.00 | 0.89 | 0.00 | 97 | 1015.7 |
| 20260906085023 | 22 | 0 | 0.0 | 0.0 | 0.00 | 0.89 | 0.00 | 97 | 1015.8 |
| 20260906084534 | 22 | 0 | 0.0 | 0.0 | 0.00 | 0.89 | 0.00 | 97 | 1015.9 |
| 20260906084016 | 22 | 0 | 0.0 | 0.0 | 0.00 | 0.89 | 0.00 | 97 | 1015.8 |
| 20260906083523 | 22 | 0 | 0.0 | 0.0 | 0.00 | 0.89 | 0.00 | 97 | 1015.7 |
| 20260906083039 | 22 | 0 | 0.0 | 0.0 | 0.00 | 0.89 | 0.00 | 97 | 1015.6 |
| 20260906082518 | 23 | 0 | 0.0 | 3.2 | 0.00 | 0.89 | 0.00 | 97 | 1015.6 |
| 20260906082019 | 23 | 0 | 0.0 | 3.2 | 0.00 | 0.89 | 0.00 | 97 | 1015.5 |
| 20260906081537 | 22 | 143 | 0.0 | 1.6 | 0.00 | 0.89 | 0.00 | 97 | 1015.4 |
| 20260906081018 | 22 | 0 | 0.0 | 1.6 | 0.00 | 0.89 | 0.00 | 97 | 1015.3 |
| 20260906080519 | 23 | 0 | 0.0 | 1.6 | 0.00 | 0.89 | 0.00 | 97 | 1015.4 |
| 20260906080035 | 23 | 0 | 0.0 | 1.6 | 0.00 | 0.89 | 0.00 | 97 | 1015.3 |
| 20260906075516 | 23 | 0 | 0.0 | 1.6 | 0.00 | 0.89 | 0.00 | 97 | 1015.2 |
| 20260906075018 | 23 | 0 | 0.0 | 1.6 | 0.00 | 0.89 | 0.00 | 97 | 1015.2 |
| 20260906074536 | 23 | 0 | 0.0 | 1.6 | 0.00 | 0.89 | 0.00 | 97 | 1015.1 |
| 20260906074017 | 23 | 0 | 0.0 | 0.0 | 0.00 | 0.89 | 0.00 | 97 | 1015.1 |
| 20260906073518 | 23 | 0 | 0.0 | 0.0 | 0.00 | 0.89 | 0.00 | 97 | 1015.2 |
| 20260906073034 | 23 | 0 | 0.0 | 4.8 | 0.00 | 0.89 | 0.00 | 97 | 1015.2 |
| 20260906072517 | 23 | 0 | 0.0 | 4.8 | 0.00 | 0.89 | 0.00 | 97 | 1015.3 |
| 20260906072017 | 23 | 151 | 0.0 | 4.8 | 0.00 | 0.89 | 0.00 | 97 | 1015.4 |
| 20260906071538 | 23 | 174 | 0.0 | 4.8 | 0.00 | 0.89 | 0.00 | 96 | 1015.4 |
| 20260906071019 | 22 | 183 | 0.0 | 4.8 | 0.00 | 0.89 | 0.00 | 96 | 1015.4 |
| 20260906070516 | 22 | 0 | 0.0 | 3.2 | 0.00 | 0.89 | 0.00 | 96 | 1015.5 |
| 20260906070033 | 22 | 162 | 0.0 | 3.2 | 0.00 | 0.89 | 0.00 | 96 | 1015.5 |
| 20260906065518 | 22 | 0 | 0.0 | 3.2 | 0.00 | 0.89 | 0.00 | 96 | 1015.5 |
| 20260906065016 | 22 | 0 | 0.0 | 1.6 | 0.00 | 0.89 | 0.00 | 96 | 1015.5 |
| 20260906064536 | 22 | 0 | 0.0 | 1.6 | 0.00 | 0.89 | 0.00 | 96 | 1015.5 |
| 20260906064018 | 22 | 156 | 0.0 | 0.0 | 0.00 | 0.89 | 0.00 | 96 | 1015.7 |
| 20260906063516 | 22 | 0 | 0.0 | 0.0 | 0.00 | 0.89 | 0.00 | 96 | 1015.7 |
| 20260906063031 | 22 | 0 | 0.0 | 0.0 | 0.00 | 0.89 | 0.00 | 96 | 1015.6 |
| 20260906062519 | 22 | 0 | 0.0 | 0.0 | 0.00 | 0.89 | 0.00 | 95 | 1015.7 |
| 20260906062019 | 22 | 0 | 0.0 | 0.0 | 0.00 | 0.89 | 0.00 | 95 | 1015.7 |
| 20260906061535 | 22 | 0 | 0.0 | 0.0 | 0.00 | 0.89 | 0.00 | 95 | 1015.7 |
| 20260906061019 | 22 | 0 | 0.0 | 0.0 | 0.00 | 0.89 | 0.00 | 95 | 1015.7 |
| 20260906060516 | 22 | 0 | 0.0 | 0.0 | 0.00 | 0.89 | 0.00 | 94 | 1015.6 |
| 20260906060034 | 22 | 0 | 0.0 | 0.0 | 0.00 | 0.89 | 0.00 | 94 | 1015.7 |
| 20260906055515 | 22 | 0 | 0.0 | 0.0 | 0.00 | 0.89 | 0.00 | 94 | 1015.6 |
| 20260906055016 | 22 | 0 | 0.0 | 1.6 | 0.00 | 0.89 | 0.00 | 94 | 1015.7 |
| 20260906054534 | 22 | 0 | 0.0 | 1.6 | 0.00 | 0.89 | 0.00 | 94 | 1015.8 |
| 20260906054015 | 22 | 0 | 0.0 | 0.0 | 0.00 | 0.89 | 0.00 | 94 | 1015.7 |
| 20260906053520 | 22 | 0 | 0.0 | 1.6 | 0.00 | 0.89 | 0.00 | 93 | 1015.7 |
| 20260906053036 | 22 | 0 | 0.0 | 1.6 | 0.00 | 0.89 | 0.00 | 93 | 1015.8 |
| 20260906052516 | 22 | 0 | 0.0 | 1.6 | 0.00 | 0.89 | 0.00 | 93 | 1015.7 |
| 20260906052021 | 23 | 0 | 0.0 | 1.6 | 0.00 | 0.89 | 0.00 | 93 | 1015.7 |
| 20260906051534 | 23 | 0 | 0.0 | 1.6 | 0.00 | 0.89 | 0.00 | 93 | 1015.8 |
| 20260906051016 | 23 | 0 | 0.0 | 0.0 | 0.00 | 0.89 | 0.00 | 92 | 1015.8 |
| 20260906050516 | 23 | 0 | 0.0 | 1.6 | 0.00 | 0.89 | 0.00 | 92 | 1015.8 |
| 20260906050054 | 23 | 0 | 0.0 | 1.6 | 0.00 | 0.89 | 0.00 | 92 | 1015.8 |
| 20260906045516 | 23 | 131 | 0.0 | 1.6 | 0.00 | 0.89 | 0.89 | 92 | 1015.8 |
| 20260906045015 | 23 | 0 | 0.0 | 1.6 | 0.00 | 0.89 | 0.89 | 92 | 1015.8 |
| 20260906044533 | 23 | 160 | 0.0 | 1.6 | 0.00 | 0.89 | 0.89 | 91 | 1015.8 |
| 20260906044017 | 23 | 0 | 0.0 | 1.6 | 0.00 | 0.89 | 0.89 | 91 | 1015.9 |
| 20260906043514 | 23 | 0 | 0.0 | 0.0 | 0.00 | 0.89 | 0.89 | 91 | 1015.9 |
| 20260906043032 | 23 | 0 | 0.0 | 0.0 | 0.00 | 0.89 | 0.89 | 90 | 1015.9 |
| 20260906042515 | 23 | 0 | 0.0 | 3.2 | 0.00 | 0.89 | 0.89 | 90 | 1015.9 |
| 20260906042019 | 23 | 0 | 0.0 | 3.2 | 0.00 | 0.89 | 0.89 | 90 | 1016.1 |
| 20260906041532 | 23 | 174 | 0.0 | 3.2 | 0.00 | 0.89 | 0.89 | 90 | 1016.1 |
| 20260906041019 | 23 | 167 | 0.0 | 3.2 | 0.00 | 0.89 | 0.89 | 90 | 1016.1 |
| 20260906040516 | 23 | 0 | 0.0 | 3.2 | 0.00 | 0.89 | 0.89 | 90 | 1016.1 |
| 20260906040036 | 23 | 0 | 0.0 | 1.6 | 0.00 | 0.89 | 0.89 | 89 | 1016.1 |
| 20260906035516 | 23 | 160 | 0.0 | 1.6 | 0.00 | 0.89 | 0.89 | 89 | 1016.1 |
| 20260906035018 | 23 | 0 | 0.0 | 3.2 | 0.00 | 0.89 | 0.89 | 89 | 1016.1 |
| 20260906034540 | 23 | 169 | 0.0 | 3.2 | 0.00 | 0.89 | 0.89 | 89 | 1016.1 |
| 20260906034016 | 23 | 0 | 0.0 | 3.2 | 0.00 | 0.89 | 0.89 | 88 | 1016.1 |
| 20260906033516 | 23 | 0 | 0.0 | 3.2 | 0.00 | 0.89 | 0.89 | 88 | 1016.1 |
| 20260906033034 | 23 | 0 | 0.0 | 1.6 | 0.00 | 0.89 | 0.89 | 88 | 1016.0 |
| 20260906032519 | 23 | 0 | 0.0 | 1.6 | 0.00 | 0.89 | 0.89 | 88 | 1015.9 |
| 20260906032019 | 23 | 0 | 0.0 | 1.6 | 0.00 | 0.89 | 0.89 | 88 | 1015.8 |
| 20260906031539 | 23 | 0 | 0.0 | 1.6 | 0.00 | 0.89 | 0.89 | 87 | 1015.9 |
| 20260906031019 | 23 | 0 | 0.0 | 1.6 | 0.00 | 0.89 | 0.89 | 87 | 1015.9 |
| 20260906030519 | 23 | 0 | 0.0 | 1.6 | 0.00 | 0.89 | 0.89 | 87 | 1015.8 |
| 20260906030032 | 23 | 0 | 0.0 | 1.6 | 0.00 | 0.89 | 0.89 | 87 | 1015.8 |
| 20260906025516 | 24 | 0 | 0.0 | 1.6 | 0.00 | 0.89 | 0.89 | 87 | 1015.9 |
| 20260906025018 | 24 | 0 | 0.0 | 1.6 | 0.00 | 0.89 | 0.89 | 86 | 1015.9 |
| 20260906024537 | 24 | 0 | 0.0 | 1.6 | 0.00 | 0.89 | 0.89 | 86 | 1015.9 |
| 20260906024019 | 24 | 0 | 0.0 | 1.6 | 0.00 | 0.89 | 0.89 | 86 | 1015.8 |
| 20260906023520 | 24 | 0 | 0.0 | 1.6 | 0.00 | 0.89 | 0.89 | 85 | 1015.7 |
| 20260906023038 | 24 | 0 | 0.0 | 1.6 | 0.00 | 0.89 | 0.89 | 85 | 1015.6 |
| 20260906022516 | 24 | 0 | 0.0 | 0.0 | 0.00 | 0.89 | 0.89 | 85 | 1015.6 |
| 20260906022019 | 25 | 0 | 0.0 | 1.6 | 0.00 | 0.89 | 0.89 | 84 | 1015.6 |
| 20260906021534 | 25 | 0 | 0.0 | 1.6 | 0.00 | 0.89 | 0.89 | 84 | 1015.7 |
| 20260906021015 | 25 | 0 | 0.0 | 0.0 | 0.00 | 0.89 | 0.89 | 83 | 1015.5 |
| 20260906020518 | 25 | 0 | 0.0 | 0.0 | 0.00 | 0.89 | 0.89 | 82 | 1015.6 |
| 20260906020034 | 25 | 0 | 0.0 | 0.0 | 0.00 | 0.89 | 0.89 | 82 | 1015.5 |
| 20260906015515 | 25 | 0 | 0.0 | 0.0 | 0.00 | 0.89 | 0.89 | 81 | 1015.4 |
| 20260906015015 | 25 | 0 | 0.0 | 0.0 | 0.00 | 0.89 | 0.89 | 80 | 1015.5 |
| 20260906014535 | 25 | 0 | 0.0 | 1.6 | 0.00 | 0.89 | 0.89 | 80 | 1015.4 |
| 20260906014018 | 26 | 0 | 0.0 | 1.6 | 0.00 | 0.89 | 0.89 | 79 | 1015.3 |
| 20260906013519 | 26 | 0 | 0.0 | 1.6 | 0.00 | 0.89 | 0.89 | 79 | 1015.2 |
| 20260906013104 | 26 | 0 | 0.0 | 1.6 | 0.00 | 0.89 | 0.89 | 78 | 1015.3 |
| 20260906012516 | 26 | 0 | 0.0 | 1.6 | 0.00 | 0.89 | 0.89 | 78 | 1015.3 |
| 20260906012018 | 26 | 0 | 0.0 | 3.2 | 0.00 | 0.89 | 0.89 | 77 | 1015.1 |
| 20260906011536 | 26 | 0 | 0.0 | 3.2 | 0.00 | 0.89 | 0.89 | 77 | 1015.2 |
| 20260906011017 | 26 | 124 | 0.0 | 3.2 | 0.00 | 0.89 | 0.89 | 76 | 1015.1 |
| 20260906010519 | 27 | 140 | 0.0 | 8.0 | 0.00 | 0.89 | 0.89 | 75 | 1015.0 |
| 20260906010031 | 27 | 0 | 1.6 | 8.0 | 0.00 | 0.89 | 0.89 | 75 | 1015.1 |
| 20260906005524 | 27 | 161 | 1.6 | 6.4 | 0.00 | 0.89 | 0.89 | 74 | 1015.0 |
| 20260906005019 | 27 | 0 | 0.0 | 4.8 | 0.00 | 0.89 | 0.89 | 74 | 1015.0 |
| 20260906004536 | 27 | 0 | 0.0 | 6.4 | 0.00 | 0.89 | 0.89 | 73 | 1014.9 |
| 20260906004025 | 27 | 0 | 1.6 | 6.4 | 0.00 | 0.89 | 0.89 | 73 | 1014.8 |
| 20260906003522 | 27 | 169 | 3.2 | 6.4 | 0.00 | 0.89 | 0.89 | 72 | 1014.7 |
| 20260906003033 | 28 | 131 | 3.2 | 8.0 | 0.00 | 0.89 | 0.89 | 71 | 1014.6 |
| 20260906002518 | 28 | 162 | 4.8 | 8.0 | 0.00 | 0.89 | 0.89 | 70 | 1014.5 |
| 20260906002016 | 28 | 146 | 3.2 | 8.0 | 0.00 | 0.89 | 0.89 | 69 | 1014.5 |
| 20260906001532 | 28 | 139 | 1.6 | 8.0 | 0.00 | 0.89 | 0.89 | 69 | 1014.5 |
| 20260906001015 | 28 | 144 | 1.6 | 9.7 | 0.00 | 0.89 | 0.89 | 69 | 1014.5 |
| 20260906000514 | 28 | 179 | 3.2 | 9.7 | 0.00 | 0.89 | 0.89 | 68 | 1014.6 |
| 20260906000033 | 28 | 186 | 1.6 | 11.3 | 0.00 | 0.89 | 0.89 | 67 | 1014.6 |
| 20260905235516 | 29 | 178 | 3.2 | 14.5 | 0.00 | 0.89 | 0.89 | 66 | 1014.4 |
| 20260905235016 | 29 | 261 | 4.8 | 14.5 | 0.00 | 0.89 | 0.89 | 65 | 1014.5 |
| 20260905234534 | 30 | 132 | 6.4 | 14.5 | 0.00 | 0.89 | 0.89 | 63 | 1014.5 |
| 20260905234017 | 30 | 206 | 3.2 | 11.3 | 0.00 | 0.89 | 0.89 | 62 | 1014.6 |
| 20260905233516 | 30 | 171 | 6.4 | 12.9 | 0.00 | 0.89 | 0.89 | 62 | 1014.6 |
| 20260905233030 | 30 | 84 | 3.2 | 12.9 | 0.00 | 0.89 | 0.89 | 62 | 1014.5 |
| 20260905232521 | 31 | 215 | 3.2 | 11.3 | 0.00 | 0.89 | 0.89 | 61 | 1014.5 |
| 20260905232019 | 31 | 161 | 3.2 | 11.3 | 0.00 | 0.89 | 0.89 | 60 | 1014.4 |
| 20260905231533 | 31 | 151 | 4.8 | 11.3 | 0.00 | 0.89 | 0.89 | 59 | 1014.5 |
| 20260905231015 | 31 | 142 | 3.2 | 9.7 | 0.00 | 0.89 | 0.89 | 58 | 1014.5 |
| 20260905230516 | 32 | 49 | 3.2 | 9.7 | 0.00 | 0.89 | 0.89 | 59 | 1014.4 |
| 20260905230034 | 32 | 198 | 4.8 | 11.3 | 0.00 | 0.89 | 0.89 | 56 | 1014.4 |
| 20260905225515 | 32 | 129 | 4.8 | 12.9 | 0.00 | 0.89 | 0.89 | 55 | 1014.4 |
| 20260905225018 | 32 | 158 | 3.2 | 12.9 | 0.00 | 0.89 | 0.89 | 54 | 1014.4 |
| 20260905224535 | 32 | 184 | 4.8 | 16.1 | 0.00 | 0.89 | 0.89 | 53 | 1014.3 |
| 20260905224015 | 32 | 203 | 4.8 | 16.1 | 0.00 | 0.89 | 0.89 | 54 | 1014.3 |
| 20260905223524 | 32 | 162 | 6.4 | 16.1 | 0.00 | 0.89 | 0.89 | 53 | 1014.3 |
| 20260905223034 | 32 | 173 | 6.4 | 14.5 | 0.00 | 0.89 | 0.89 | 52 | 1014.2 |
| 20260905222517 | 32 | 181 | 4.8 | 16.1 | 0.00 | 0.89 | 0.89 | 52 | 1014.3 |
| 20260905222017 | 32 | 183 | 6.4 | 16.1 | 0.00 | 0.89 | 0.89 | 51 | 1014.2 |
| 20260905221531 | 32 | 155 | 8.0 | 16.1 | 0.00 | 0.89 | 0.89 | 50 | 1014.0 |
| 20260905221016 | 32 | 201 | 8.0 | 16.1 | 0.00 | 0.89 | 0.89 | 49 | 1014.0 |
| 20260905220516 | 32 | 160 | 6.4 | 14.5 | 0.00 | 0.89 | 0.89 | 49 | 1014.0 |
| 20260905220035 | 33 | 146 | 6.4 | 17.7 | 0.00 | 0.89 | 0.89 | 50 | 1014.0 |
| 20260905215519 | 33 | 173 | 6.4 | 17.7 | 0.00 | 0.89 | 0.89 | 48 | 1013.9 |
| 20260905215018 | 33 | 155 | 4.8 | 8.0 | 0.00 | 0.89 | 0.89 | 51 | 1013.9 |
| 20260905214531 | 33 | 160 | 4.8 | 8.0 | 0.00 | 0.89 | 0.89 | 51 | 1014.0 |
| 20260905214018 | 33 | 156 | 4.8 | 11.3 | 0.00 | 0.89 | 0.89 | 50 | 1013.9 |
| 20260905213518 | 32 | 177 | 4.8 | 11.3 | 0.00 | 0.89 | 0.89 | 50 | 1014.0 |
| 20260905213032 | 33 | 182 | 4.8 | 9.7 | 0.00 | 0.89 | 0.89 | 49 | 1014.0 |
| 20260905212515 | 33 | 167 | 4.8 | 11.3 | 0.00 | 0.89 | 0.89 | 49 | 1014.0 |
| 20260905212023 | 32 | 190 | 4.8 | 11.3 | 0.00 | 0.89 | 0.89 | 48 | 1014.0 |
| 20260905211531 | 33 | 180 | 4.8 | 12.9 | 0.00 | 0.89 | 0.89 | 48 | 1014.0 |
| 20260905211016 | 32 | 117 | 4.8 | 12.9 | 0.00 | 0.89 | 0.89 | 50 | 1014.0 |
| 20260905210520 | 32 | 155 | 4.8 | 11.3 | 0.00 | 0.89 | 0.89 | 49 | 1014.0 |
| 20260905210042 | 32 | 174 | 6.4 | 12.9 | 0.00 | 0.89 | 0.89 | 50 | 1014.1 |
| 20260905205521 | 32 | 158 | 4.8 | 12.9 | 0.00 | 0.89 | 0.89 | 52 | 1014.1 |
| 20260905205018 | 32 | 184 | 6.4 | 12.9 | 0.00 | 0.89 | 0.89 | 50 | 1014.1 |
| 20260905204531 | 32 | 176 | 3.2 | 9.7 | 0.00 | 0.89 | 0.89 | 51 | 1014.0 |
| 20260905204015 | 32 | 176 | 4.8 | 9.7 | 0.00 | 0.89 | 0.89 | 51 | 1014.0 |
| 20260905203515 | 32 | 158 | 4.8 | 11.3 | 0.00 | 0.89 | 0.89 | 51 | 1013.8 |
| 20260905203034 | 31 | 166 | 4.8 | 11.3 | 0.00 | 0.89 | 0.89 | 52 | 1013.8 |
| 20260905202519 | 31 | 0 | 1.6 | 9.7 | 0.00 | 0.89 | 0.89 | 55 | 1013.9 |
| 20260905202019 | 31 | 157 | 3.2 | 9.7 | 0.00 | 0.89 | 0.89 | 55 | 1013.8 |
| 20260905201539 | 31 | 165 | 3.2 | 11.3 | 0.00 | 0.89 | 0.89 | 56 | 1013.9 |
| 20260905201016 | 31 | 136 | 4.8 | 11.3 | 0.00 | 0.89 | 0.89 | 56 | 1013.8 |
| 20260905200521 | 31 | 179 | 4.8 | 12.9 | 0.00 | 0.89 | 0.89 | 56 | 1013.8 |
| 20260905200041 | 31 | 161 | 4.8 | 12.9 | 0.00 | 0.89 | 0.89 | 56 | 1014.1 |
| 20260905195517 | 31 | 143 | 4.8 | 12.9 | 0.00 | 0.89 | 0.89 | 56 | 1014.2 |
| 20260905195019 | 31 | 162 | 4.8 | 12.9 | 0.00 | 0.89 | 0.89 | 56 | 1014.1 |
| 20260905194532 | 31 | 161 | 4.8 | 9.7 | 0.00 | 0.89 | 0.89 | 56 | 1014.1 |
| 20260905194017 | 31 | 181 | 4.8 | 11.3 | 0.00 | 0.89 | 0.89 | 58 | 1014.2 |
| 20260905193515 | 30 | 336 | 4.8 | 20.9 | 0.00 | 0.89 | 0.89 | 58 | 1014.1 |
| 20260905193033 | 30 | 205 | 8.0 | 20.9 | 0.00 | 0.89 | 0.89 | 60 | 1014.0 |
| 20260905192523 | 30 | 161 | 6.4 | 12.9 | 0.00 | 0.89 | 0.89 | 58 | 1014.0 |
| 20260905192021 | 30 | 164 | 3.2 | 9.7 | 0.00 | 0.89 | 0.89 | 61 | 1014.0 |
| 20260905191536 | 30 | 0 | 1.6 | 14.5 | 0.00 | 0.89 | 0.89 | 62 | 1013.8 |